Weather History for Nassau Airport, Bahamas

Change the Weather History Date:

Thursday, August 16, 2012

  Actual Average Record
Temperature  
Mean Temperature 84 °F -  
Max Temperature 91 °F 88 °F - ()
Min Temperature 78 °F 74 °F - ()
Cooling Degree Days 20    
Growing Degree Days 34 (Base 50)    
Moisture  
Dew Point 75 °F    
Average Humidity 72    
Maximum Humidity 84    
Minimum Humidity 54    
Precipitation  
Precipitation 0.12 in 0.25 in - ()
Sea Level Pressure  
Sea Level Pressure 30.06 in    
Wind  
Wind Speed 3 mph ()    
Max Wind Speed 10 mph    
Max Gust Speed -    
Visibility 6.8 miles    
Events Rain , Thunderstorm    
T = Trace of Precipitation, MM = Missing Value Source: Averaged Metar Reports

Daily Weather History Graph

Daily Weather History Graph

Search for Another Location

Airport:

Trip Planner

Search our weather history database for the weather conditions in past years. The results will help you decide how hot, cold, wet, or windy it might be!

Date:

Astronomy

Aug. 16, 2012 Rise Set
Actual Time 6:44 AM EDT 7:43 PM EDT
Civil Twilight 6:20 AM EDT 8:07 PM EDT
Nautical Twilight 5:52 AM EDT 8:35 PM EDT
Astronomical Twilight 5:23 AM EDT 9:03 PM EDT
Moon 5:41 AM EDT (8/16) 6:54 PM EDT (8/16)
Length of Visible Light 13h 46m
Length of Day
12h 58m
Waning Crescent, 1% of the Moon is Illuminated
Aug 16
Waning Crescent
Aug 17
New
Aug 24
First Quarter
Aug 31
Full
Sep 8
Last Quarter

Hourly Weather History & Observations

Time (EDT) Temp. Heat Index Dew Point Humidity Pressure Visibility Wind Dir Wind Speed Gust Speed Precip Events Conditions
12:00 AM 84.2 °F 92.3 °F 75.2 °F 74% 30.08 in 6.2 mi ESE 4.6 mph - N/A   Mostly Cloudy
1:00 AM 82.4 °F 89.5 °F 75.2 °F 79% 30.08 in 6.2 mi SE 4.6 mph - N/A   Scattered Clouds
2:00 AM 83 °F - 75 °F 70% 30.06 in 9 mi SE 5.8 mph - -   Scattered Clouds
2:00 AM 84.2 °F 92.3 °F 75.2 °F 74% 30.06 in 6.2 mi SE 5.8 mph - N/A   Scattered Clouds
3:00 AM 82.4 °F 88.2 °F 73.4 °F 74% 30.04 in 6.2 mi SE 3.5 mph - N/A   Scattered Clouds
4:00 AM 82.4 °F 88.2 °F 73.4 °F 74% 30.02 in 6.2 mi SE 3.5 mph - N/A   Scattered Clouds
5:00 AM 82 °F - 75 °F 75% 30.03 in 9 mi Calm Calm - - Rain Light Rain Showers
5:00 AM 82.4 °F 89.5 °F 75.2 °F 79% 30.03 in 6.2 mi Calm Calm - N/A   Scattered Clouds
6:00 AM 80.6 °F 86.2 °F 75.2 °F 84% 30.03 in 6.2 mi Variable 1.2 mph - N/A   Scattered Clouds
7:00 AM 80.6 °F 85.4 °F 73.4 °F 79% 30.05 in 6.2 mi SE 3.5 mph - N/A   Partly Cloudy
8:00 AM 83 °F - 76 °F 73% 30.05 in 9 mi 1.2 mph - -   Partly Cloudy
8:00 AM 82.4 °F 89.5 °F 75.2 °F 79% 30.05 in 6.2 mi Variable 1.2 mph - N/A   Partly Cloudy
9:00 AM 86.0 °F 95.1 °F 75.2 °F 70% 30.08 in 6.2 mi Variable 2.3 mph - N/A   Partly Cloudy
10:00 AM 87.8 °F 95.6 °F 73.4 °F 62% 30.10 in 6.2 mi East 3.5 mph - N/A   Scattered Clouds
11:00 AM 90 °F - 76 °F 54% 30.11 in 9 mi North 3.5 mph - -   Partly Cloudy
11:00 AM 89.6 °F 99.8 °F 75.2 °F 62% 30.11 in 6.2 mi North 3.5 mph - N/A   Scattered Clouds
12:00 PM 86.0 °F 95.1 °F 75.2 °F 70% 30.12 in 6.2 mi Variable 2.3 mph - N/A   Scattered Clouds
12:42 PM 80.6 °F 85.4 °F 73.4 °F 79% 30.12 in 6.2 mi South 10.4 mph - N/A Rain , Thunderstorm Light Thunderstorms and Rain
1:00 PM 78.8 °F - 73.4 °F 83% 30.11 in 6.2 mi South 4.6 mph - N/A Rain , Thunderstorm Light Thunderstorms and Rain
2:00 PM 84 °F - 77 °F 73% 30.10 in 8 mi East 3.5 mph - - Thunderstorm Light Thunderstorm
2:00 PM 84.2 °F 96.1 °F 78.8 °F 84% 30.10 in 6.2 mi East 3.5 mph - N/A   Scattered Clouds
3:00 PM 86.0 °F 93.4 °F 73.4 °F 66% 30.06 in 6.2 mi Variable 2.3 mph - N/A   Mostly Cloudy
4:00 PM 86.0 °F 93.4 °F 73.4 °F 66% 30.03 in 6.2 mi ESE 8.1 mph - N/A   Mostly Cloudy
5:00 PM 89 °F - 75 °F 55% 30.04 in 8 mi SSE 4.6 mph - -   Partly Cloudy
5:00 PM 87.8 °F 97.6 °F 75.2 °F 66% 30.03 in 6.2 mi SSE 4.6 mph - N/A   Mostly Cloudy
6:00 PM 86.0 °F 93.4 °F 73.4 °F 66% 30.03 in 6.2 mi Variable 2.3 mph - N/A   Mostly Cloudy
7:00 PM 84.2 °F 92.3 °F 75.2 °F 74% 30.03 in 6.2 mi Variable 3.5 mph - N/A   Mostly Cloudy
8:00 PM 83 °F - 75 °F 71% 30.04 in 8 mi Calm Calm - -   Scattered Clouds
8:00 PM - - - N/A% 30.03 in 6.2 mi Calm Calm - N/A   Scattered Clouds
9:00 PM 84.2 °F 92.3 °F 75.2 °F 74% 30.05 in 6.2 mi ESE 3.5 mph - N/A   Scattered Clouds
10:00 PM 84.2 °F 90.9 °F 73.4 °F 70% 30.07 in 6.2 mi Calm Calm - N/A   Scattered Clouds
11:00 PM 83 °F - 74 °F 67% 30.09 in 8 mi ESE 3.5 mph - -   Scattered Clouds
11:00 PM 82.4 °F 88.2 °F 73.4 °F 74% 30.09 in 6.2 mi ESE 3.5 mph - N/A   Scattered Clouds